Location: Lane
(33.5226°N, 79.8788°W)
Time: 08:26:42
(UTC+00:00)

SR - Pass Details

Date: 27 September 2022
Orbit: 577 x 874 km, 66.7° (Epoch: 03 December)

Event Time Altitude Azimuth Distance (km) Brightness Sun altitude
Rises 11:53:04 0° 345° (NNW) 3,319 ? 7.9°
Reaches altitude 10° 11:55:58 10° 357° (N) 2,335 ? 8.5°
Maximum altitude 12:00:25 26° 54° (NE) 1,418 ? 9.4°
Drops below altitude 10° 12:04:33 10° 111° (ESE) 2,157 ? 10.2°
Sets 12:07:06 0° 124° (SE) 3,017 ? 10.8°
